Find Starlink 4563

NORAD ID: 53561 Int'l Des: 2022-101 Owner: SPXS Country: US Constellation: starlink operational
LEOCIRCULAR

实时位置

正在加载3D地球...

关于 Starlink 4563

正在加载描述...

即将过境

Passes for default location (London). Set your location on the main map for personalized predictions.

高度历史

Loading altitude history...

两行轨道根数

1 53561U 22101AL 26105.74242928 -.00002777 00000-0 -15650-3 0 9993
2 53561 53.2166 257.7811 0001314 86.5930 273.5212 15.08837462201904
Epoch: Apr 15, 2026 • Age: 9 hours

当前状态

高度 540.0 km
速度 7.59 km/s
星下点 5.76°N, 170.35°W
发射日期 Aug 19, 2022
运行时间 3.6 years
类型 internet

技术详情

分类 Payload
质量 300.00 kg
干质量 290.00 kg
总质量 300.00 kg
长度 0.20 m
直径 2.80 m
跨度 9.00 m
形状 Box + pan
制造商 SPXS
平台类型 Starlink
阶段状态 In Orbit
所有者/国家 SPXS/US

Most Searched